Location: Observatorio Las Palmas
(29.0667°N, 110.9333°W)
Time: 06:13:05
(UTC-07:00)

Hubble Space Telescope - Visible Passes

Search period start: 01 February 2015 00:00
Search period end: 11 February 2015 00:00
Orbit: 544 x 548 km, 28.5° (Epoch: 31 January)

Date Brightness Start Highest point End Pass type
(mag) Time Alt. Az. Time Alt. Az. Time Alt. Az.
01 Feb 0.8 19:01:07 10° W 19:05:19 84° S 19:07:42 25° E visible
01 Feb 3.8 20:42:31 10° W 20:43:13 14° W 20:43:13 14° W visible
02 Feb 0.8 18:53:08 10° W 18:57:20 84° S 19:00:17 19° E visible
02 Feb 3.5 20:34:33 10° W 20:35:47 18° W 20:35:47 18° W visible
03 Feb 0.8 18:45:09 10° W 18:49:20 81° S 18:52:53 14° E visible
03 Feb 3.1 20:26:38 10° W 20:28:24 23° WSW 20:28:24 23° WSW visible
04 Feb 0.9 18:37:09 10° W 18:41:20 75° S 18:45:31 10° ESE visible
04 Feb 2.8 20:18:43 10° W 20:21:04 26° WSW 20:21:04 26° WSW visible
05 Feb 1.1 18:29:10 10° W 18:33:19 67° S 18:37:29 10° ESE visible
05 Feb 2.6 20:10:52 10° W 20:13:48 26° SW 20:13:48 26° SW visible
06 Feb 2.7 20:03:06 10° WSW 20:06:22 22° SSW 20:06:38 22° SSW visible
07 Feb 3.1 19:55:30 10° WSW 19:58:16 17° SSW 19:59:34 15° S visible
08 Feb 3.5 19:48:13 10° SW 19:50:09 13° SSW 19:51:57 10° S visible
